Lapse_Rate
5.1 5.1 5.2 5.4 5.4 5.5 5.4 5.5 5.5 5.2 5.2 5.2 5.4 5.4 5.1 5.5 5.4 5.1 5.2 5.2 5.4 5.3 5.3 5.1 5.3 5.3 5.2 5.0 5.1 5.0 5.2 5.4 5.2 5.1 5.2 5.2 5.4 5.4 5.3 5.2 5.1 5.2 5.2
5.4 5.4 5.5 5.5 5.6 5.4 5.4 5.5 5.5 5.4 5.4 5.2 5.2 5.3 5.3 5.5 5.5 5.4 5.4 5.2 5.2 5.3 5.2 5.1 5.2 4.9 5.1 5.1 5.2 5.1 5.3 5.3 5.5 5.6 5.5 5.4 5.6 5.7 5.6 5.4 5.2 5.1 5.1
5.6 5.7 5.7 5.7 5.7 5.4 5.3 5.4 5.4 5.4 5.5 5.3 5.2 5.3 5.3 5.2 5.5 5.3 5.3 5.1 5.1 5.1 5.2 5.1 5.1 5.0 5.0 5.1 5.0 5.2 5.1 5.2 5.4 5.5 5.6 5.6 5.6 5.7 5.6 5.5 5.4 5.3 5.4
5.7 5.6 5.7 5.8 5.6 5.5 5.3 5.3 5.4 5.3 5.3 5.4 5.2 5.2 5.2 5.3 5.4 5.3 5.2 5.1 5.0 5.1 5.1 5.3 5.2 4.9 5.0 5.0 5.0 5.0 4.8 5.0 5.3 5.5 5.5 5.3 5.5 5.6 5.6 5.5 5.4 5.3 5.3
5.8 5.8 5.8 5.7 5.7 5.5 5.4 5.4 5.4 5.2 5.3 5.2 5.4 5.3 5.3 5.5 5.4 5.2 5.0 4.9 5.0 5.2 5.2 5.1 5.1 5.1 5.0 5.1 5.0 4.8 4.7 4.9 5.2 5.4 5.3 5.3 5.5 5.6 5.6 5.6 5.5 5.4 5.2
6.1 6.0 6.0 5.8 5.8 5.7 5.5 5.4 5.4 5.3 5.2 5.1 5.2 5.5 5.5 5.3 5.3 5.1 5.0 5.1 5.1 5.1 5.0 5.0 5.1 5.1 5.0 5.0 4.9 4.8 4.9 4.8 5.2 5.3 5.5 5.4 5.1 5.5 5.5 5.5 5.4 5.3 5.2
6.4 6.1 6.0 6.0 5.9 5.8 5.6 5.4 5.4 5.4 5.2 5.2 5.3 5.3 5.3 5.4 5.2 5.1 5.2 5.0 5.0 4.9 4.9 5.0 5.2 5.0 4.8 4.9 4.9 4.8 4.9 5.0 5.1 5.1 5.1 5.2 5.3 5.5 5.5 5.5 5.4 5.4 5.2
6.2 6.2 6.0 6.0 5.9 5.8 5.6 5.4 5.2 5.4 5.2 5.2 5.2 5.2 5.3 5.2 5.0 5.2 5.3 5.0 4.9 4.9 4.8 5.0 5.2 5.0 5.0 5.0 5.0 4.8 4.9 4.9 5.0 4.9 5.0 5.1 5.2 5.3 5.3 5.5 5.5 5.4 5.4
6.3 6.4 6.1 6.1 5.8 5.6 5.4 5.3 5.3 5.4 5.1 5.3 5.0 5.0 5.2 4.9 5.0 5.4 5.1 5.1 5.0 4.9 4.8 4.9 5.1 5.0 5.1 5.1 4.9 4.8 4.9 5.0 5.0 4.9 5.0 5.0 5.1 5.2 5.3 5.3 5.4 5.5 5.5
6.1 6.1 6.1 6.0 5.8 5.8 5.6 5.5 4.9 5.2 5.0 5.1 5.2 5.3 5.0 5.0 4.9 5.2 4.9 5.1 5.0 4.9 4.8 4.9 5.1 4.9 5.1 5.2 5.0 5.0 5.1 5.0 4.8 4.9 5.0 5.2 5.3 5.4 5.4 5.4 5.3 5.3 5.5
6.1 6.2 6.1 5.9 5.4 5.5 5.5 5.4 5.1 5.1 4.9 5.1 5.1 5.2 5.2 4.9 5.1 5.3 5.1 5.1 5.0 5.0 5.0 5.1 5.0 4.9 5.2 5.0 5.0 5.0 5.0 4.8 4.8 5.1 5.1 5.2 5.2 5.2 5.4 5.4 5.4 5.3 5.2
6.2 6.2 6.2 5.8 5.5 5.3 5.5 5.0 5.4 5.0 5.1 5.2 5.2 5.1 5.1 4.8 4.9 5.1 5.3 5.1 5.1 5.1 5.0 5.0 5.1 5.0 5.0 5.1 5.1 5.1 5.1 5.0 5.0 5.1 5.1 5.2 5.3 5.5 5.5 5.5 5.3 5.3 5.3
5.8 6.1 6.1 5.8 5.3 5.3 5.1 4.8 4.9 5.3 5.0 4.9 5.0 5.1 5.0 4.8 4.9 4.9 5.0 5.0 4.9 5.0 5.0 5.1 5.1 5.0 5.2 5.0 5.1 5.1 5.1 5.0 4.7 4.9 5.2 5.1 5.4 5.5 5.7 5.7 5.4 5.2 5.3
5.8 5.8 5.8 5.6 5.4 5.5 5.3 5.4 5.5 5.3 5.5 5.2 4.9 4.9 4.9 5.1 5.1 5.2 5.0 5.2 4.9 5.0 5.1 5.1 5.1 5.1 5.2 5.3 5.2 5.2 5.2 4.9 4.7 4.3 4.7 5.0 5.3 5.4 5.5 5.5 5.5 5.4 5.4
6.0 6.0 5.9 5.7 5.7 5.2 5.4 5.1 5.2 5.3 5.4 4.9 4.9 4.9 5.2 5.3 5.2 5.4 5.1 5.1 4.9 5.0 5.1 5.0 5.0 5.1 5.1 5.3 5.4 5.5 5.6 5.4 4.9 4.5 4.6 5.2 5.3 5.2 5.2 5.3 5.4 5.6 5.6
6.0 6.2 5.9 5.8 5.5 5.4 5.2 5.1 5.1 4.8 5.1 5.3 4.9 4.8 5.2 5.0 5.0 5.2 5.1 5.2 5.0 5.1 5.2 5.1 4.9 4.9 5.0 5.1 5.3 5.6 5.7 5.6 4.8 5.3 5.2 4.7 5.2 5.2 5.1 5.2 5.5 5.3 5.3
5.9 6.0 5.9 5.9 5.8 5.6 5.4 5.2 5.3 5.3 5.3 5.4 5.1 4.9 4.8 5.0 5.3 5.3 5.2 5.2 5.2 5.3 5.2 5.3 5.1 5.0 5.1 5.2 5.4 5.7 5.8 5.8 5.4 5.3 5.2 4.7 4.8 5.3 5.1 5.2 5.6 5.2 5.2
5.8 5.8 5.9 6.0 5.9 5.9 5.4 5.2 5.0 5.0 4.8 5.1 5.1 4.9 5.1 5.4 5.5 5.4 5.5 5.6 5.6 5.5 5.6 5.6 5.5 5.4 5.4 5.5 5.5 5.5 5.8 5.8 5.6 5.5 5.4 5.2 4.9 4.9 5.0 5.0 5.3 5.3 5.4
6.1 6.0 5.8 6.0 5.8 6.1 5.9 5.5 5.5 5.1 5.2 5.1 5.0 5.4 5.4 5.7 5.7 5.6 5.7 5.8 5.8 5.7 5.6 5.6 5.6 5.6 5.4 5.4 5.5 5.6 5.5 5.7 5.6 5.4 5.4 5.3 5.2 5.2 5.2 5.0 5.3 5.5 5.4
6.2 6.3 6.0 6.1 6.0 6.1 6.2 6.0 5.6 5.6 5.5 5.5 5.5 5.5 5.5 5.7 5.7 5.5 5.7 6.1 5.9 5.6 5.8 5.8 5.8 5.9 5.9 5.7 5.6 5.7 5.7 5.7 5.7 5.6 5.5 5.4 5.3 5.4 5.3 5.3 5.4 5.3 5.4
6.0 6.1 6.2 6.0 6.2 6.2 6.2 6.5 6.5 6.0 5.9 5.8 5.7 5.7 5.6 5.5 5.5 5.5 5.8 5.8 5.6 5.8 5.9 6.0 5.7 6.0 6.0 5.8 5.8 5.8 5.7 5.8 5.9 5.8 5.6 5.5 5.3 5.5 5.5 5.2 5.1 5.2 5.3
6.0 6.0 6.0 6.2 5.9 6.3 6.4 6.3 6.3 6.2 6.2 6.2 5.9 5.7 5.6 5.7 5.8 5.8 6.0 5.9 5.8 5.9 5.8 6.0 5.9 6.2 6.3 6.1 6.4 6.4 5.9 5.4 5.9 5.7 5.6 5.6 5.4 5.3 5.4 5.4 5.1 5.4 5.2
6.1 6.1 6.0 6.1 6.0 6.2 6.3 6.3 6.2 6.1 6.2 6.2 6.0 5.9 5.8 5.8 5.8 5.9 5.9 5.9 6.0 6.0 6.0 6.1 6.1 6.2 6.2 6.2 6.3 6.5 6.5 5.6 5.6 5.1 5.1 5.7 5.6 5.6 5.5 5.6 5.3 5.5 5.2
6.2 6.1 6.0 6.0 6.0 5.9 5.9 5.8 5.9 6.1 6.2 6.1 6.0 5.8 5.6 5.6 5.7 5.7 5.8 6.1 6.1 5.9 5.8 5.9 6.1 6.0 5.8 5.8 5.8 5.9 6.1 6.3 6.3 6.3 5.2 4.7 5.8 5.8 5.7 5.7 5.6 5.4 5.2
6.4 6.4 6.2 6.1 6.0 6.0 6.1 6.2 6.2 6.2 6.1 6.0 5.8 5.8 5.7 5.7 5.9 6.1 6.0 6.0 6.0 6.0 5.8 5.7 5.6 5.5 5.4 5.5 5.7 5.6 5.7 5.7 5.9 6.2 6.3 5.8 5.4 4.7 5.8 5.9 5.6 5.3 5.5
6.5 6.5 6.4 6.4 6.2 6.2 6.3 6.4 6.4 6.4 6.4 6.4 6.3 6.3 6.2 6.2 6.3 6.4 6.3 6.2 6.1 6.0 5.9 6.0 5.9 5.9 5.8 5.6 5.5 5.8 5.9 5.8 5.7 5.7 6.1 6.1 4.8 5.0 5.1 5.6 5.6 5.3 5.3
Wind_Speed
6 10 5 6 6 8 14 19 23 25 24 22 22 23 22 23 22 20 20 18 17 17 16 18 17 17 15 13 10 9 9 10 10 10 9 9 8 7 10 11 14 15 15
6 7 5 5 6 10 13 21 24 24 24 22 20 22 21 21 21 19 17 14 16 17 16 16 15 14 12 11 11 10 10 10 9 9 10 11 9 9 9 8 4 18 16
4 4 8 6 7 11 14 23 24 25 23 21 20 20 20 19 18 17 15 13 14 15 14 15 15 14 13 12 12 11 10 10 8 5 8 9 13 9 9 9 15 17 16
5 7 1 9 9 12 15 22 24 25 23 20 20 19 19 17 17 16 15 15 14 14 14 14 14 13 13 13 13 12 11 10 6 3 9 9 13 10 9 10 13 14 16
6 5 3 9 12 14 17 21 24 24 23 20 18 16 16 16 15 14 15 15 15 15 15 14 15 14 13 12 11 12 10 9 2 7 6 4 10 12 10 10 12 15 16
9 8 9 13 15 15 18 22 24 24 22 19 16 14 14 13 12 13 15 14 15 15 17 16 14 12 10 9 9 6 6 5 8 6 6 4 7 12 9 6 8 11 9
11 12 12 15 17 16 17 21 23 24 20 16 15 13 12 10 9 12 15 16 16 16 15 14 12 10 8 6 4 1 1 1 1 3 6 6 11 6 7 8 7 8 9
10 12 13 14 14 16 17 21 24 24 17 15 12 13 13 16 15 12 15 16 16 15 13 11 9 7 6 5 6 5 3 6 5 5 6 9 9 5 6 7 7 8 8
12 12 13 11 12 14 17 24 24 22 18 14 12 12 17 17 11 12 14 14 15 14 11 9 7 5 5 6 7 7 4 1 2 7 4 8 8 4 3 6 7 8 8
11 10 13 13 13 19 15 23 26 18 13 14 10 13 19 17 8 13 13 13 12 11 9 7 5 3 3 3 3 3 2 9 4 2 4 10 7 5 5 5 5 6 7
11 12 14 16 23 24 23 23 24 14 11 9 9 14 15 15 12 12 14 10 11 8 6 5 3 2 4 6 3 2 10 2 3 2 2 11 8 5 6 6 6 6 6
12 13 15 14 19 19 16 17 18 11 5 4 8 16 12 11 7 17 12 10 8 6 5 3 1 4 10 3 4 9 6 5 2 4 3 10 8 7 6 7 8 7 7
11 11 13 12 16 14 13 12 16 10 4 9 7 13 11 8 6 9 11 11 9 6 7 5 5 3 3 6 6 6 6 6 4 4 8 12 12 11 9 9 8 8 9
10 12 13 14 14 15 12 12 15 9 10 8 3 8 7 4 5 5 3 5 4 3 2 2 2 2 4 5 8 8 9 9 7 6 8 12 13 13 13 12 11 10 10
10 10 14 12 12 15 14 13 14 13 11 8 8 5 5 3 4 5 3 3 1 2 1 3 4 3 5 8 8 9 9 10 10 9 8 13 14 15 15 14 12 12 13
8 9 12 14 11 14 12 13 11 10 15 13 9 11 1 2 2 1 2 1 1 2 2 4 5 6 6 10 8 11 11 12 9 8 11 8 13 17 19 17 15 16 16
7 9 10 12 13 11 11 11 12 12 15 16 15 17 4 5 3 6 2 2 2 1 3 6 7 6 7 8 8 10 11 11 11 10 11 12 9 20 20 20 20 21 18
7 8 8 8 12 11 11 12 12 16 9 8 6 7 10 8 8 6 3 3 3 5 3 5 5 6 8 7 6 7 8 10 10 10 12 13 11 11 20 23 23 22 22
9 9 9 8 9 10 9 9 13 12 10 9 11 11 11 8 8 6 6 5 4 6 3 5 5 7 8 8 8 8 8 7 8 11 8 11 11 13 13 18 24 24 24
10 10 10 9 9 9 8 6 5 8 9 11 12 12 9 10 9 8 8 7 9 6 5 5 6 5 8 7 9 9 8 8 7 7 8 10 11 11 12 13 12 16 25
9 11 12 10 10 9 7 7 5 5 6 6 10 12 12 12 11 9 10 7 8 5 4 7 6 5 6 5 7 7 9 8 4 5 6 6 6 7 9 10 11 14 8
10 11 11 11 10 9 7 5 5 3 6 7 7 10 13 11 9 10 9 7 6 6 6 7 5 6 4 5 5 4 5 7 3 2 4 3 4 4 5 9 11 11 12
11 11 12 11 11 9 7 5 4 4 4 4 4 6 7 10 10 10 11 10 6 6 6 5 5 7 7 6 3 5 6 5 9 5 7 4 3 6 5 6 9 9 9
11 11 10 12 11 10 10 7 7 5 4 5 4 4 5 8 11 12 11 10 7 7 7 6 6 6 5 7 5 5 5 8 8 6 7 5 3 6 5 6 5 10 12
11 11 11 11 11 10 10 8 7 7 4 5 4 4 5 5 8 9 9 10 8 7 7 6 8 7 7 7 6 6 6 6 6 7 8 7 6 3 2 4 4 6 12
10 11 11 11 11 11 11 11 10 8 7 5 3 4 4 4 4 3 7 7 8 8 8 7 8 9 8 7 8 7 7 7 7 7 7 7 7 5 3 4 3 2 4
Wind_Direction
91 104 65 70 99 122 126 123 126 122 119 118 115 115 114 114 117 112 113 111 111 119 123 121 126 131 131 124 119 112 109 109 111 114 110 104 105 120 129 140 163 132 132
95 89 77 71 114 131 131 127 128 126 121 121 117 115 113 113 116 117 111 110 117 120 118 116 119 123 126 122 115 106 105 105 111 116 125 119 107 116 134 148 134 113 135
79 116 126 100 128 138 137 131 131 130 125 122 120 114 116 114 118 115 113 115 116 122 116 121 118 118 116 113 111 107 99 100 94 114 188 149 128 132 124 113 113 131 136
38 16 127 127 148 148 144 136 135 134 127 122 118 116 118 116 117 115 114 114 116 121 117 112 117 114 112 109 105 96 89 79 78 213 227 144 133 136 132 125 129 138 140
49 37 103 157 160 154 147 138 136 136 128 119 116 118 117 119 118 117 111 111 115 115 113 113 110 111 111 108 98 92 84 79 53 255 127 123 143 124 140 141 149 147 163
17 47 87 159 159 156 148 146 139 136 131 118 121 120 116 117 124 124 112 121 115 120 114 112 110 106 100 96 93 91 83 90 247 94 103 113 61 124 140 164 136 142 144
49 35 71 147 152 152 148 146 138 135 128 120 120 118 112 107 113 131 125 120 122 120 116 110 110 105 98 87 76 77 161 205 12 82 77 125 83 111 143 149 151 151 162
58 54 87 128 145 149 154 137 134 128 118 116 121 115 102 102 91 131 127 125 128 119 113 110 107 103 91 74 54 61 165 203 142 80 61 61 82 146 152 156 158 158 162
58 59 88 110 135 148 141 134 119 112 100 102 122 113 113 103 124 124 125 121 120 114 115 108 103 86 72 68 56 50 59 262 207 75 100 97 112 116 137 167 164 170 161
54 67 75 82 101 90 118 125 95 95 87 61 90 120 126 109 127 118 127 114 114 115 108 102 87 49 41 41 48 36 240 220 41 123 114 93 131 148 151 158 168 175 167
66 69 65 88 95 98 95 109 115 104 85 33 81 115 123 137 135 144 81 108 108 111 106 98 73 2 289 222 192 262 275 283 44 108 89 129 162 179 173 177 176 179 183
82 71 86 102 121 104 113 120 115 106 101 114 65 99 91 128 145 112 115 111 111 119 124 107 55 271 255 357 180 213 274 348 338 337 91 146 181 202 199 199 196 187 187
87 90 90 105 111 113 113 118 116 164 152 83 53 92 110 106 134 148 140 156 144 193 173 184 198 229 13 331 331 308 307 289 298 211 118 161 190 205 213 212 210 205 198
102 99 89 99 112 129 126 134 135 164 133 103 79 85 87 30 88 81 73 113 182 138 114 202 199 323 276 274 284 318 308 303 286 308 143 173 198 209 214 214 212 214 211
113 108 97 96 108 122 129 142 163 157 119 118 118 139 53 44 87 109 107 107 333 147 161 231 245 288 285 274 282 294 296 296 300 290 302 167 198 215 219 220 216 225 218
117 111 111 112 120 130 139 145 160 143 134 136 124 211 356 331 350 83 133 137 203 242 270 276 281 298 300 293 282 282 294 280 270 274 274 232 198 212 220 217 206 221 227
139 124 124 125 125 132 130 130 135 136 146 150 166 216 244 261 294 300 280 293 338 340 265 265 260 273 270 284 283 265 265 269 273 277 271 263 227 204 213 220 216 213 217
138 144 147 140 141 143 127 142 147 155 153 182 215 195 236 253 258 272 279 291 45 271 281 289 290 274 270 268 272 275 288 274 273 267 261 270 274 275 195 208 217 217 220
164 163 165 157 156 148 147 156 152 159 182 197 236 243 239 250 255 265 267 263 266 282 269 271 275 291 292 285 292 274 269 261 265 261 267 260 262 264 270 197 205 217 221
167 172 178 176 156 163 160 175 186 172 194 213 223 237 247 248 246 254 256 265 266 261 261 272 292 269 288 299 294 309 286 269 263 260 266 254 254 257 258 259 212 220 223
177 175 181 183 172 181 184 188 177 211 209 230 246 254 251 243 248 238 250 246 248 278 304 286 285 292 286 284 299 313 295 258 279 280 258 258 268 263 260 258 246 247 222
174 179 182 183 188 203 181 198 209 182 205 229 227 242 239 244 247 242 254 282 274 276 260 277 285 295 303 307 300 288 300 308 166 281 306 253 272 278 263 247 253 229 232
177 180 178 186 181 207 218 198 204 234 246 250 266 243 228 233 249 248 247 247 255 258 268 261 258 263 307 305 245 287 297 314 336 296 205 317 295 297 278 244 255 233 226
181 179 166 175 184 193 193 206 215 238 204 207 240 263 265 235 242 246 255 257 258 265 268 263 252 275 264 294 294 268 291 308 303 308 317 288 290 262 294 268 231 215 218
170 180 174 170 175 184 192 220 209 230 243 236 248 258 260 267 256 255 247 250 251 252 260 254 270 259 283 276 296 301 294 287 262 281 303 307 287 359 318 259 260 217 203
176 181 179 176 179 185 195 200 215 229 242 263 256 280 255 255 261 179 260 257 256 253 258 260 264 258 265 278 297 303 291 303 302 299 290 290 331 318 314 310 310 199 215